Flag for Austria Weather past 2 weeks in St. Pölten, Lower Austria, Austria

Now
57 °F

Light rain. Broken clouds.


Feels Like: 56 °F
Forecast: 51 / 53 °F
Wind: 6 mph from Northwest

Location: Tulln Airport

Current Time: May 22, 2015 at 5:04:15 PM

Latest Report: May 22, 2015 at 3:50 PM


Visibility: 6 mi

Pressure: 30.15 "Hg

Humidity: 82%

Dew point: 52 °F

Location of St. PöltenLocation

Historic Weather in St. Pölten — Graph

°F

St. Pölten temperature yesterday

Maximum temperature yesterday: 54 °F (at 12:50 PM)
Minimum temperature yesterday: 48 °F (at 5:50 AM)
Average temperature yesterday: 51 °F

Past Weeks' High & Low Weather Summary

 TemperatureHumidityPressure
High79 °F (May 12, 2:50 PM)100% (May 14, 6:50 AM)30.42 "Hg (May 14, 6:50 AM)
Low41 °F (May 12, 5:50 AM)26% (May 12, 2:50 PM)29.71 "Hg (May 19, 4:50 AM)
Average61 °F67%30.06 "Hg
* Reported May 7 3:50 PM — May 22 3:50 PM, St. Pölten, Weather by CustomWeather, © 2015

Note: Actual official high and low records may vary slightly from our data, if they occured in-between our weather recording intervals... More about our weather records

Advertising

St. Pölten weather history for previous 24 hours

 ConditionsComfort  
Time TempWeatherWind HumidityBarometerVisibility
3:50 PM
Fri, May 22
57 °FLight rain. Broken clouds.6 mph82%30.15 "Hg6 mi
2:50 PM57 °FLight rain. Broken clouds.5 mph82%30.15 "Hg6 mi
1:50 PM59 °FLight rain. Partly sunny.9 mph72%30.18 "Hg9 mi
12:50 PM59 °FPartly sunny.6 mph68%30.18 "Hg9 mi
11:50 AM59 °FPartly sunny.7 mph68%30.18 "Hg11 mi
10:50 AM59 °FBroken clouds.10 mph68%30.21 "Hg12 mi
9:50 AM57 °FBroken clouds.8 mph72%30.21 "Hg12 mi
8:50 AM55 °FBroken clouds.3 mph82%30.21 "Hg12 mi
7:50 AM54 °FBroken clouds.5 mph77%30.21 "Hg11 mi
6:50 AM52 °FPartly sunny.6 mph82%30.21 "Hg9 mi
5:50 AM50 °FPartly cloudy.3 mph94%30.21 "Hg9 mi
10:50 PM
Thu, May 21
52 °FPartly cloudy.7 mph94%30.21 "Hg9 mi
9:50 PM52 °FPartly cloudy.7 mph94%30.18 "Hg9 mi
8:50 PM52 °FBroken clouds.9 mph94%30.18 "Hg9 mi
7:50 PM52 °FBroken clouds.9 mph94%30.18 "Hg9 mi
6:50 PM54 °FBroken clouds.9 mph94%30.15 "Hg9 mi
5:50 PM52 °FPartly sunny.9 mph100%30.15 "Hg9 mi
Weather by CustomWeather, © 2015

See weather overviewHow to use our weather pages